| time (UTC) | temp F | wind direction | speed MPH | gust MPH | rain 1hr in | rain 24hr in | rain mn in | humidity % | barometer mb |
| 20260508183826 | 73 | 116 | 2.0 | 6.0 | 0.00 | 0.00 | 0.00 | 86 | 1011.6 |
| 20260508183329 | 73 | 53 | 1.0 | 5.0 | 0.00 | 0.00 | 0.00 | 85 | 1011.5 |
| 20260508182832 | 73 | 58 | 1.0 | 5.0 | 0.00 | 0.00 | 0.00 | 86 | 1011.5 |
| 20260508182357 | 73 | 63 | 1.0 | 7.0 | 0.00 | 0.00 | 0.00 | 86 | 1011.5 |
| 20260508181823 | 73 | 112 | 3.0 | 7.0 | 0.00 | 0.00 | 0.00 | 86 | 1011.7 |
| 20260508181326 | 73 | 134 | 5.0 | 6.0 | 0.00 | 0.00 | 0.00 | 86 | 1011.7 |
| 20260508180830 | 73 | 79 | 2.0 | 6.0 | 0.00 | 0.00 | 0.00 | 86 | 1011.7 |
| 20260508180336 | 72 | 69 | 0.0 | 6.0 | 0.00 | 0.00 | 0.00 | 86 | 1011.8 |
| 20260508175843 | 72 | 114 | 1.0 | 5.0 | 0.00 | 0.00 | 0.00 | 87 | 1011.8 |
| 20260508175326 | 72 | 63 | 2.0 | 5.0 | 0.00 | 0.00 | 0.00 | 87 | 1011.8 |
| 20260508174834 | 72 | 78 | 2.0 | 6.0 | 0.00 | 0.00 | 0.00 | 88 | 1012.3 |
| 20260508174335 | 71 | 61 | 4.0 | 6.0 | 0.00 | 0.00 | 0.00 | 87 | 1012.3 |
| 20260508173839 | 71 | 80 | 0.0 | 4.0 | 0.00 | 0.00 | 0.00 | 88 | 1012.3 |
| 20260508173322 | 71 | 80 | 0.0 | 4.0 | 0.00 | 0.00 | 0.00 | 87 | 1012.3 |
| 20260508172846 | 71 | 80 | 0.0 | 5.0 | 0.00 | 0.00 | 0.00 | 88 | 1012.3 |
| 20260508172330 | 71 | 63 | 0.0 | 5.0 | 0.00 | 0.00 | 0.00 | 88 | 1012.3 |
| 20260508171838 | 71 | 66 | 2.0 | 5.0 | 0.00 | 0.00 | 0.00 | 87 | 1012.8 |
| 20260508171343 | 71 | 92 | 1.0 | 2.0 | 0.00 | 0.00 | 0.00 | 87 | 1012.8 |
| 20260508170825 | 71 | 130 | 1.0 | 9.0 | 0.00 | 0.00 | 0.00 | 87 | 1012.8 |
| 20260508170332 | 71 | 130 | 3.0 | 9.0 | 0.00 | 0.00 | 0.00 | 87 | 1012.5 |
| 20260508165835 | 71 | 125 | 3.0 | 6.0 | 0.00 | 0.00 | 0.00 | 86 | 1012.5 |
| 20260508165339 | 71 | 98 | 2.0 | 5.0 | 0.00 | 0.00 | 0.00 | 87 | 1012.5 |
| 20260508164823 | 71 | 94 | 1.0 | 5.0 | 0.00 | 0.00 | 0.00 | 86 | 1012.7 |
| 20260508164347 | 71 | 79 | 0.0 | 5.0 | 0.00 | 0.00 | 0.00 | 87 | 1012.7 |
| 20260508163832 | 71 | 126 | 2.0 | 7.0 | 0.00 | 0.00 | 0.00 | 87 | 1012.7 |
| 20260508163319 | 70 | 78 | 0.0 | 7.0 | 0.00 | 0.00 | 0.00 | 88 | 1012.8 |
| 20260508162828 | 69 | 144 | 2.0 | 11.0 | 0.00 | 0.00 | 0.00 | 89 | 1012.8 |
| 20260508162352 | 69 | 78 | 2.0 | 11.0 | 0.00 | 0.00 | 0.00 | 89 | 1012.8 |
| 20260508161834 | 69 | 102 | 3.0 | 7.0 | 0.00 | 0.00 | 0.00 | 89 | 1013.3 |
| 20260508161339 | 69 | 106 | 1.0 | 6.0 | 0.00 | 0.00 | 0.00 | 89 | 1013.3 |
| 20260508160823 | 69 | 74 | 0.0 | 6.0 | 0.00 | 0.00 | 0.00 | 88 | 1013.3 |
| 20260508160326 | 69 | 70 | 1.0 | 6.0 | 0.00 | 0.00 | 0.00 | 88 | 1013.3 |
| 20260508155829 | 69 | 141 | 2.0 | 5.0 | 0.00 | 0.00 | 0.00 | 89 | 1013.3 |
| 20260508155332 | 69 | 74 | 0.0 | 4.0 | 0.00 | 0.00 | 0.00 | 88 | 1013.3 |
| 20260508154837 | 69 | 91 | 1.0 | 6.0 | 0.00 | 0.00 | 0.00 | 88 | 1013.4 |
| 20260508154341 | 69 | 65 | 1.0 | 6.0 | 0.00 | 0.00 | 0.00 | 88 | 1013.4 |
| 20260508153829 | 69 | 55 | 1.0 | 6.0 | 0.00 | 0.00 | 0.00 | 88 | 1013.4 |
| 20260508153334 | 69 | 89 | 2.0 | 4.0 | 0.00 | 0.00 | 0.00 | 88 | 1013.8 |
| 20260508152822 | 69 | 20 | 0.0 | 3.0 | 0.00 | 0.00 | 0.00 | 88 | 1013.8 |
| 20260508152324 | 69 | 113 | 1.0 | 7.0 | 0.00 | 0.00 | 0.00 | 88 | 1013.8 |
| 20260508151829 | 69 | 282 | 1.0 | 7.0 | 0.00 | 0.00 | 0.00 | 87 | 1013.4 |
| 20260508151333 | 69 | 81 | 1.0 | 7.0 | 0.00 | 0.00 | 0.00 | 87 | 1013.4 |
| 20260508150839 | 69 | 11 | 1.0 | 8.0 | 0.00 | 0.00 | 0.00 | 87 | 1013.4 |
| 20260508150324 | 69 | 11 | 3.0 | 8.0 | 0.00 | 0.00 | 0.00 | 87 | 1013.6 |
| 20260508145827 | 69 | 57 | 2.0 | 4.0 | 0.00 | 0.00 | 0.00 | 87 | 1013.6 |
| 20260508145332 | 69 | 9 | 1.0 | 5.0 | 0.00 | 0.00 | 0.00 | 88 | 1013.6 |
| 20260508144857 | 68 | 73 | 2.0 | 6.0 | 0.00 | 0.00 | 0.00 | 87 | 1013.8 |
| 20260508144324 | 68 | 33 | 1.0 | 6.0 | 0.00 | 0.00 | 0.00 | 87 | 1013.8 |
| 20260508143829 | 69 | 51 | 2.0 | 6.0 | 0.00 | 0.00 | 0.00 | 87 | 1013.8 |
| 20260508143354 | 68 | 102 | 0.0 | 5.0 | 0.00 | 0.00 | 0.00 | 87 | 1013.8 |
| 20260508142823 | 68 | 74 | 1.0 | 5.0 | 0.00 | 0.00 | 0.00 | 87 | 1013.8 |
| 20260508142328 | 68 | 53 | 2.0 | 5.0 | 0.00 | 0.00 | 0.00 | 87 | 1013.8 |
| 20260508141833 | 68 | 96 | 1.0 | 5.0 | 0.00 | 0.00 | 0.00 | 87 | 1013.8 |
| 20260508141339 | 68 | 96 | 1.0 | 4.0 | 0.00 | 0.00 | 0.00 | 86 | 1013.8 |
| 20260508140824 | 68 | 11 | 1.0 | 4.0 | 0.00 | 0.00 | 0.00 | 86 | 1013.8 |
| 20260508140331 | 69 | 79 | 1.0 | 3.0 | 0.00 | 0.00 | 0.00 | 86 | 1013.6 |
| 20260508135836 | 69 | 146 | 0.0 | 3.0 | 0.00 | 0.00 | 0.00 | 87 | 1013.6 |
| 20260508135321 | 69 | 39 | 1.0 | 3.0 | 0.00 | 0.00 | 0.00 | 86 | 1013.6 |
| 20260508134825 | 68 | 300 | 0.0 | 4.0 | 0.00 | 0.00 | 0.00 | 87 | 1013.3 |
| 20260508134330 | 68 | 50 | 1.0 | 4.0 | 0.00 | 0.00 | 0.00 | 87 | 1013.3 |
| 20260508133839 | 68 | 356 | 1.0 | 3.0 | 0.00 | 0.00 | 0.00 | 88 | 1013.3 |
| 20260508133344 | 68 | 85 | 0.0 | 3.0 | 0.00 | 0.00 | 0.00 | 88 | 1013.3 |
| 20260508132830 | 68 | 59 | 0.0 | 4.0 | 0.00 | 0.00 | 0.00 | 88 | 1013.3 |
| 20260508132341 | 68 | 70 | 1.0 | 4.0 | 0.00 | 0.00 | 0.00 | 88 | 1013.3 |
| 20260508131825 | 68 | 130 | 1.0 | 4.0 | 0.00 | 0.00 | 0.00 | 88 | 1013.3 |
| 20260508131351 | 68 | 76 | 1.0 | 4.0 | 0.00 | 0.00 | 0.00 | 88 | 1013.3 |
| 20260508130834 | 68 | 300 | 0.0 | 4.0 | 0.00 | 0.00 | 0.00 | 89 | 1013.3 |
| 20260508130339 | 68 | 68 | 0.0 | 4.0 | 0.00 | 0.00 | 0.00 | 89 | 1013.4 |
| 20260508125822 | 68 | 49 | 1.0 | 3.0 | 0.00 | 0.00 | 0.00 | 89 | 1013.4 |
| 20260508125326 | 68 | 9 | 0.0 | 3.0 | 0.00 | 0.00 | 0.00 | 89 | 1013.4 |
| 20260508124828 | 67 | 132 | 0.0 | 6.0 | 0.00 | 0.00 | 0.00 | 90 | 1013.1 |
| 20260508124334 | 67 | 132 | 1.0 | 7.0 | 0.00 | 0.00 | 0.00 | 89 | 1013.1 |
| 20260508123840 | 67 | 118 | 3.0 | 5.0 | 0.00 | 0.00 | 0.00 | 89 | 1013.1 |
| 20260508123344 | 67 | 138 | 3.0 | 4.0 | 0.00 | 0.00 | 0.00 | 89 | 1013.3 |
| 20260508122831 | 67 | 38 | 1.0 | 5.0 | 0.00 | 0.00 | 0.00 | 89 | 1013.3 |
| 20260508122321 | 67 | 91 | 1.0 | 5.0 | 0.00 | 0.00 | 0.00 | 89 | 1013.3 |
| 20260508121826 | 67 | 89 | 1.0 | 4.0 | 0.00 | 0.00 | 0.00 | 89 | 1013.6 |
| 20260508121353 | 67 | 61 | 1.0 | 4.0 | 0.00 | 0.00 | 0.00 | 89 | 1013.6 |
| 20260508120839 | 67 | 83 | 2.0 | 4.0 | 0.00 | 0.00 | 0.00 | 89 | 1013.6 |
| 20260508120322 | 68 | 68 | 0.0 | 2.0 | 0.00 | 0.00 | 0.00 | 88 | 1013.9 |
| 20260508115849 | 68 | 68 | 0.0 | 1.0 | 0.00 | 0.00 | 0.00 | 88 | 1013.9 |
| 20260508115332 | 68 | 68 | 0.0 | 1.0 | 0.00 | 0.00 | 0.00 | 88 | 1013.9 |
| 20260508114822 | 68 | 68 | 0.0 | 1.0 | 0.00 | 0.00 | 0.00 | 88 | 1013.9 |
| 20260508114327 | 68 | 68 | 0.0 | 2.0 | 0.00 | 0.00 | 0.00 | 87 | 1013.9 |
| 20260508113832 | 68 | 68 | 0.0 | 5.0 | 0.00 | 0.00 | 0.00 | 87 | 1013.9 |
| 20260508113341 | 68 | 36 | 1.0 | 5.0 | 0.00 | 0.00 | 0.00 | 87 | 1013.8 |
| 20260508112823 | 68 | 61 | 0.0 | 5.0 | 0.00 | 0.00 | 0.00 | 87 | 1013.8 |
| 20260508112333 | 68 | 25 | 2.0 | 5.0 | 0.00 | 0.00 | 0.00 | 87 | 1013.8 |
| 20260508111818 | 68 | 54 | 0.0 | 3.0 | 0.00 | 0.00 | 0.00 | 86 | 1012.8 |
| 20260508111325 | 68 | 54 | 1.0 | 3.0 | 0.00 | 0.00 | 0.00 | 86 | 1012.8 |
| 20260508110829 | 68 | 94 | 0.0 | 3.0 | 0.00 | 0.00 | 0.00 | 86 | 1012.8 |
| 20260508110332 | 68 | 75 | 2.0 | 3.0 | 0.00 | 0.00 | 0.00 | 86 | 1012.8 |
| 20260508105835 | 68 | 63 | 0.0 | 5.0 | 0.00 | 0.00 | 0.00 | 86 | 1012.8 |
| 20260508105322 | 68 | 58 | 1.0 | 4.0 | 0.00 | 0.00 | 0.00 | 86 | 1012.8 |
| 20260508104824 | 68 | 136 | 0.0 | 5.0 | 0.00 | 0.00 | 0.00 | 86 | 1012.9 |
| 20260508104329 | 68 | 110 | 2.0 | 5.0 | 0.00 | 0.00 | 0.00 | 86 | 1012.9 |
| 20260508103832 | 68 | 83 | 1.0 | 6.0 | 0.00 | 0.00 | 0.00 | 86 | 1012.9 |
| 20260508103335 | 68 | 90 | 1.0 | 6.0 | 0.00 | 0.00 | 0.00 | 86 | 1013.4 |
| 20260508102820 | 68 | 120 | 3.0 | 4.0 | 0.00 | 0.00 | 0.00 | 86 | 1013.4 |
| 20260508102331 | 68 | 78 | 1.0 | 3.0 | 0.00 | 0.00 | 0.00 | 85 | 1013.4 |
| 20260508101837 | 68 | 69 | 0.0 | 3.0 | 0.00 | 0.00 | 0.00 | 85 | 1013.3 |
| 20260508101401 | 68 | 321 | 1.0 | 4.0 | 0.00 | 0.00 | 0.00 | 85 | 1013.3 |
| 20260508100826 | 68 | 326 | 0.0 | 6.0 | 0.00 | 0.00 | 0.00 | 85 | 1013.3 |
| 20260508100356 | 68 | 16 | 0.0 | 6.0 | 0.00 | 0.00 | 0.00 | 85 | 1013.2 |
| 20260508095838 | 68 | 60 | 1.0 | 5.0 | 0.00 | 0.00 | 0.00 | 84 | 1013.2 |
| 20260508095323 | 68 | 54 | 2.0 | 5.0 | 0.00 | 0.00 | 0.00 | 84 | 1013.2 |
| 20260508094846 | 68 | 82 | 1.0 | 3.0 | 0.00 | 0.00 | 0.00 | 84 | 1013.4 |
| 20260508094349 | 68 | 67 | 0.0 | 3.0 | 0.00 | 0.00 | 0.00 | 84 | 1013.4 |
| 20260508093834 | 68 | 59 | 1.0 | 3.0 | 0.00 | 0.00 | 0.00 | 84 | 1013.4 |
| 20260508093338 | 68 | 323 | 0.0 | 1.0 | 0.00 | 0.00 | 0.00 | 83 | 1013.3 |
| 20260508092822 | 68 | 323 | 0.0 | 2.0 | 0.00 | 0.00 | 0.00 | 83 | 1013.3 |
| 20260508092328 | 68 | 323 | 1.0 | 2.0 | 0.00 | 0.00 | 0.00 | 83 | 1013.3 |
| 20260508091834 | 68 | 327 | 0.0 | 4.0 | 0.00 | 0.00 | 0.00 | 83 | 1012.3 |
| 20260508091358 | 68 | 338 | 0.0 | 7.0 | 0.00 | 0.00 | 0.00 | 83 | 1012.3 |
| 20260508090840 | 68 | 97 | 2.0 | 7.0 | 0.00 | 0.00 | 0.00 | 83 | 1012.3 |
| 20260508090329 | 68 | 82 | 1.0 | 6.0 | 0.00 | 0.00 | 0.00 | 83 | 1012.8 |
| 20260508085854 | 68 | 118 | 1.0 | 6.0 | 0.00 | 0.00 | 0.00 | 82 | 1012.8 |
| 20260508085338 | 68 | 91 | 0.0 | 5.0 | 0.00 | 0.00 | 0.00 | 82 | 1012.8 |
| 20260508084821 | 68 | 82 | 2.0 | 5.0 | 0.00 | 0.00 | 0.00 | 82 | 1013.3 |
| 20260508084328 | 68 | 83 | 2.0 | 5.0 | 0.00 | 0.00 | 0.00 | 82 | 1013.3 |
| 20260508083834 | 68 | 63 | 1.0 | 5.0 | 0.00 | 0.00 | 0.00 | 82 | 1013.3 |
| 20260508083337 | 68 | 73 | 1.0 | 5.0 | 0.00 | 0.00 | 0.00 | 82 | 1013.4 |
| 20260508082901 | 68 | 50 | 1.0 | 5.0 | 0.00 | 0.00 | 0.00 | 82 | 1013.4 |
| 20260508082324 | 68 | 81 | 0.0 | 6.0 | 0.00 | 0.00 | 0.00 | 82 | 1013.4 |
| 20260508081829 | 68 | 74 | 3.0 | 6.0 | 0.00 | 0.00 | 0.00 | 82 | 1013.2 |
| 20260508081334 | 68 | 93 | 0.0 | 7.0 | 0.00 | 0.00 | 0.00 | 82 | 1013.2 |
| 20260508080838 | 68 | 94 | 4.0 | 7.0 | 0.00 | 0.00 | 0.00 | 82 | 1013.2 |
| 20260508080325 | 68 | 14 | 0.0 | 3.0 | 0.00 | 0.00 | 0.00 | 82 | 1013.3 |
| 20260508075833 | 68 | 79 | 1.0 | 5.0 | 0.00 | 0.00 | 0.00 | 82 | 1013.3 |
| 20260508075337 | 69 | 92 | 2.0 | 5.0 | 0.00 | 0.00 | 0.00 | 82 | 1013.3 |
| 20260508074822 | 69 | 87 | 0.0 | 3.0 | 0.00 | 0.00 | 0.00 | 82 | 1013.8 |
| 20260508074327 | 69 | 50 | 0.0 | 3.0 | 0.00 | 0.00 | 0.00 | 82 | 1013.8 |
| 20260508073831 | 69 | 357 | 0.0 | 3.0 | 0.00 | 0.00 | 0.00 | 82 | 1013.8 |
| 20260508073334 | 69 | 96 | 0.0 | 2.0 | 0.00 | 0.00 | 0.00 | 82 | 1013.8 |
| 20260508072821 | 69 | 305 | 1.0 | 2.0 | 0.00 | 0.00 | 0.00 | 82 | 1013.8 |
| 20260508072329 | 69 | 341 | 0.0 | 2.0 | 0.00 | 0.00 | 0.00 | 82 | 1013.8 |
| 20260508071836 | 69 | 338 | 0.0 | 2.0 | 0.00 | 0.00 | 0.00 | 82 | 1013.7 |
| 20260508071321 | 69 | 333 | 1.0 | 4.0 | 0.00 | 0.00 | 0.00 | 82 | 1013.7 |
| 20260508070830 | 69 | 68 | 0.0 | 4.0 | 0.00 | 0.00 | 0.00 | 82 | 1013.7 |
| 20260508070337 | 69 | 54 | 0.0 | 2.0 | 0.00 | 0.00 | 0.00 | 82 | 1014.0 |
| 20260508065822 | 69 | 62 | 0.0 | 2.0 | 0.00 | 0.00 | 0.00 | 82 | 1014.0 |
| 20260508065325 | 69 | 84 | 0.0 | 2.0 | 0.00 | 0.00 | 0.00 | 83 | 1014.0 |
| 20260508064832 | 69 | 11 | 0.0 | 2.0 | 0.00 | 0.00 | 0.00 | 83 | 1013.9 |
| 20260508064357 | 69 | 9 | 0.0 | 1.0 | 0.00 | 0.00 | 0.00 | 83 | 1013.9 |
| 20260508063839 | 69 | 9 | 0.0 | 2.0 | 0.00 | 0.00 | 0.00 | 83 | 1013.9 |
| 20260508063324 | 69 | 9 | 0.0 | 2.0 | 0.00 | 0.00 | 0.00 | 82 | 1013.8 |
| 20260508062829 | 69 | 83 | 0.0 | 0.0 | 0.00 | 0.00 | 0.00 | 82 | 1013.8 |
| 20260508062337 | 69 | 83 | 0.0 | 1.0 | 0.00 | 0.00 | 0.00 | 82 | 1013.8 |
| 20260508061821 | 69 | 83 | 0.0 | 3.0 | 0.00 | 0.00 | 0.00 | 82 | 1013.6 |
| 20260508061329 | 69 | 83 | 0.0 | 3.0 | 0.00 | 0.00 | 0.00 | 82 | 1013.6 |
| 20260508060856 | 69 | 83 | 0.0 | 3.0 | 0.00 | 0.00 | 0.00 | 81 | 1013.6 |
| 20260508060322 | 69 | 88 | 1.0 | 3.0 | 0.00 | 0.00 | 0.00 | 81 | 1013.8 |
| 20260508055829 | 69 | 77 | 0.0 | 2.0 | 0.00 | 0.00 | 0.00 | 81 | 1013.8 |
| 20260508055353 | 69 | 355 | 0.0 | 2.0 | 0.00 | 0.00 | 0.00 | 80 | 1013.8 |
| 20260508054836 | 69 | 355 | 1.0 | 2.0 | 0.00 | 0.00 | 0.00 | 80 | 1013.5 |
| 20260508054324 | 69 | 73 | 0.0 | 1.0 | 0.00 | 0.00 | 0.00 | 80 | 1013.5 |
| 20260508053849 | 69 | 73 | 0.0 | 2.0 | 0.00 | 0.00 | 0.00 | 80 | 1013.5 |
| 20260508053332 | 70 | 73 | 0.0 | 5.0 | 0.00 | 0.00 | 0.00 | 80 | 1013.4 |
| 20260508052837 | 70 | 91 | 0.0 | 5.0 | 0.00 | 0.00 | 0.00 | 79 | 1013.4 |
| 20260508052402 | 70 | 85 | 0.0 | 7.0 | 0.00 | 0.00 | 0.00 | 79 | 1013.4 |
| 20260508051824 | 70 | 73 | 2.0 | 7.0 | 0.00 | 0.00 | 0.00 | 79 | 1013.7 |
| 20260508051329 | 70 | 82 | 1.0 | 4.0 | 0.00 | 0.00 | 0.00 | 79 | 1013.7 |
| 20260508050855 | 70 | 70 | 1.0 | 5.0 | 0.00 | 0.00 | 0.00 | 78 | 1013.7 |
| 20260508050338 | 70 | 70 | 0.0 | 5.0 | 0.00 | 0.00 | 0.00 | 78 | 1013.8 |
| 20260508045821 | 70 | 106 | 1.0 | 5.0 | 0.00 | 0.00 | 0.00 | 77 | 1013.8 |
| 20260508045344 | 70 | 104 | 1.0 | 2.0 | 0.00 | 0.00 | 0.00 | 77 | 1013.8 |
| 20260508044832 | 70 | 16 | 0.0 | 5.0 | 0.00 | 0.00 | 0.00 | 77 | 1014.1 |
| 20260508044337 | 70 | 89 | 1.0 | 5.0 | 0.00 | 0.00 | 0.00 | 77 | 1014.1 |
| 20260508043843 | 70 | 89 | 2.0 | 4.0 | 0.00 | 0.00 | 0.00 | 76 | 1014.1 |
| 20260508043327 | 70 | 52 | 0.0 | 3.0 | 0.00 | 0.00 | 0.00 | 76 | 1014.0 |
| 20260508042831 | 70 | 115 | 0.0 | 6.0 | 0.00 | 0.00 | 0.00 | 76 | 1014.0 |
| 20260508042334 | 70 | 70 | 1.0 | 6.0 | 0.00 | 0.00 | 0.00 | 76 | 1014.0 |
| 20260508041839 | 71 | 82 | 2.0 | 3.0 | 0.00 | 0.00 | 0.00 | 75 | 1013.8 |
| 20260508041323 | 71 | 357 | 1.0 | 3.0 | 0.00 | 0.00 | 0.00 | 75 | 1013.8 |
| 20260508040827 | 71 | 87 | 2.0 | 3.0 | 0.00 | 0.00 | 0.00 | 75 | 1013.8 |
| 20260508040332 | 71 | 88 | 1.0 | 2.0 | 0.00 | 0.00 | 0.00 | 75 | 1013.8 |
| 20260508035837 | 71 | 114 | 0.0 | 3.0 | 0.00 | 0.00 | 0.00 | 74 | 1013.8 |
| 20260508035325 | 71 | 60 | 1.0 | 5.0 | 0.00 | 0.00 | 0.00 | 74 | 1013.8 |
| 20260508034832 | 71 | 74 | 2.0 | 7.0 | 0.00 | 0.00 | 0.00 | 74 | 1013.4 |
| 20260508034335 | 71 | 49 | 1.0 | 6.0 | 0.00 | 0.00 | 0.00 | 73 | 1013.4 |
| 20260508033839 | 71 | 93 | 2.0 | 6.0 | 0.00 | 0.00 | 0.00 | 73 | 1013.4 |
| 20260508033327 | 71 | 65 | 2.0 | 6.0 | 0.00 | 0.00 | 0.00 | 73 | 1014.1 |
| 20260508032831 | 71 | 90 | 2.0 | 5.0 | 0.00 | 0.00 | 0.00 | 73 | 1014.1 |
| 20260508032338 | 71 | 87 | 2.0 | 5.0 | 0.00 | 0.00 | 0.00 | 73 | 1014.1 |
| 20260508031823 | 72 | 79 | 0.0 | 5.0 | 0.00 | 0.00 | 0.00 | 73 | 1014.4 |
| 20260508031328 | 72 | 61 | 1.0 | 3.0 | 0.00 | 0.00 | 0.00 | 73 | 1014.4 |
| 20260508030831 | 72 | 62 | 0.0 | 3.0 | 0.00 | 0.00 | 0.00 | 73 | 1014.4 |
| 20260508030335 | 72 | 62 | 0.0 | 5.0 | 0.00 | 0.00 | 0.00 | 73 | 1014.4 |
| 20260508025839 | 72 | 82 | 2.0 | 6.0 | 0.00 | 0.00 | 0.00 | 72 | 1014.4 |
| 20260508025328 | 72 | 91 | 2.0 | 6.0 | 0.00 | 0.00 | 0.00 | 72 | 1014.4 |
| 20260508024853 | 72 | 37 | 1.0 | 3.0 | 0.00 | 0.00 | 0.00 | 72 | 1014.4 |
| 20260508024336 | 72 | 70 | 2.0 | 3.0 | 0.00 | 0.00 | 0.00 | 72 | 1014.4 |
| 20260508023902 | 72 | 49 | 0.0 | 3.0 | 0.00 | 0.00 | 0.00 | 72 | 1014.4 |
| 20260508023346 | 72 | 70 | 2.0 | 7.0 | 0.00 | 0.00 | 0.00 | 72 | 1014.3 |
| 20260508022833 | 72 | 11 | 1.0 | 2.0 | 0.00 | 0.00 | 0.00 | 73 | 1014.3 |
| 20260508022318 | 72 | 85 | 0.0 | 0.0 | 0.00 | 0.00 | 0.00 | 73 | 1014.3 |
| 20260508021825 | 72 | 85 | 0.0 | 3.0 | 0.00 | 0.00 | 0.00 | 73 | 1014.3 |
| 20260508021331 | 72 | 85 | 1.0 | 4.0 | 0.00 | 0.00 | 0.00 | 73 | 1014.3 |
| 20260508020857 | 72 | 78 | 1.0 | 4.0 | 0.00 | 0.00 | 0.00 | 73 | 1014.3 |
| 20260508020341 | 73 | 43 | 1.0 | 2.0 | 0.00 | 0.00 | 0.00 | 74 | 1014.2 |
| 20260508015825 | 73 | 75 | 1.0 | 2.0 | 0.00 | 0.00 | 0.00 | 75 | 1014.2 |
| 20260508015333 | 73 | 75 | 0.0 | 1.0 | 0.00 | 0.00 | 0.00 | 74 | 1014.2 |
| 20260508014837 | 73 | 75 | 0.0 | 1.0 | 0.00 | 0.00 | 0.00 | 74 | 1014.2 |
| 20260508014326 | 73 | 75 | 0.0 | 1.0 | 0.00 | 0.00 | 0.00 | 74 | 1014.2 |
| 20260508013831 | 74 | 75 | 0.0 | 1.0 | 0.00 | 0.00 | 0.00 | 74 | 1014.2 |
| 20260508013336 | 74 | 75 | 0.0 | 1.0 | 0.00 | 0.00 | 0.00 | 74 | 1014.2 |
| 20260508012820 | 74 | 75 | 0.0 | 1.0 | 0.00 | 0.00 | 0.00 | 74 | 1014.2 |
| 20260508012328 | 74 | 75 | 0.0 | 2.0 | 0.00 | 0.00 | 0.00 | 72 | 1014.2 |
| 20260508011832 | 74 | 75 | 0.0 | 4.0 | 0.00 | 0.00 | 0.00 | 72 | 1013.8 |
| 20260508011356 | 74 | 75 | 0.0 | 5.0 | 0.00 | 0.00 | 0.00 | 72 | 1013.8 |
| 20260508010839 | 74 | 63 | 1.0 | 5.0 | 0.00 | 0.00 | 0.00 | 72 | 1013.8 |
| 20260508010325 | 74 | 119 | 1.0 | 3.0 | 0.00 | 0.00 | 0.00 | 72 | 1013.9 |
| 20260508005828 | 74 | 89 | 1.0 | 3.0 | 0.00 | 0.00 | 0.00 | 72 | 1013.9 |
| 20260508005333 | 75 | 99 | 0.0 | 2.0 | 0.00 | 0.00 | 0.00 | 73 | 1013.9 |
| 20260508004837 | 75 | 99 | 0.0 | 0.0 | 0.00 | 0.00 | 0.00 | 72 | 1013.9 |
| 20260508004325 | 75 | 99 | 0.0 | 4.0 | 0.00 | 0.00 | 0.00 | 72 | 1013.9 |
| 20260508003850 | 75 | 99 | 0.0 | 4.0 | 0.00 | 0.00 | 0.00 | 72 | 1013.9 |
| 20260508003335 | 75 | 71 | 1.0 | 4.0 | 0.00 | 0.00 | 0.00 | 72 | 1014.2 |
| 20260508002822 | 75 | 78 | 1.0 | 4.0 | 0.00 | 0.00 | 0.00 | 72 | 1014.2 |
| 20260508002326 | 75 | 92 | 0.0 | 2.0 | 0.00 | 0.00 | 0.00 | 72 | 1014.2 |
| 20260508001831 | 75 | 92 | 0.0 | 2.0 | 0.00 | 0.00 | 0.00 | 72 | 1014.3 |
| 20260508001334 | 75 | 339 | 0.0 | 2.0 | 0.00 | 0.00 | 0.00 | 72 | 1014.3 |
| 20260508000901 | 75 | 54 | 1.0 | 3.0 | 0.00 | 0.00 | 0.00 | 72 | 1014.3 |
| 20260508000327 | 75 | 340 | 1.0 | 3.0 | 0.00 | 0.00 | 0.00 | 72 | 1014.3 |
| 20260507235834 | 76 | 302 | 2.0 | 3.0 | 0.00 | 0.00 | 0.00 | 72 | 1014.3 |
| 20260507235339 | 76 | 80 | 0.0 | 2.0 | 0.00 | 0.00 | 0.00 | 72 | 1014.3 |
| 20260507234825 | 76 | 53 | 1.0 | 3.0 | 0.00 | 0.00 | 0.00 | 72 | 1014.4 |
| 20260507234330 | 76 | 53 | 1.0 | 3.0 | 0.00 | 0.00 | 0.00 | 71 | 1014.4 |
| 20260507233836 | 76 | 30 | 2.0 | 4.0 | 0.00 | 0.00 | 0.00 | 71 | 1014.4 |
| 20260507233324 | 76 | 325 | 0.0 | 4.0 | 0.00 | 0.00 | 0.00 | 72 | 1014.2 |
| 20260507232832 | 76 | 56 | 1.0 | 4.0 | 0.00 | 0.00 | 0.00 | 71 | 1014.2 |
| 20260507232336 | 76 | 42 | 0.0 | 4.0 | 0.00 | 0.00 | 0.00 | 71 | 1014.2 |
| 20260507231840 | 76 | 64 | 0.0 | 4.0 | 0.00 | 0.00 | 0.00 | 71 | 1013.8 |
| 20260507231323 | 76 | 7 | 2.0 | 4.0 | 0.00 | 0.00 | 0.00 | 71 | 1013.8 |
| 20260507230830 | 76 | 84 | 1.0 | 4.0 | 0.00 | 0.00 | 0.00 | 71 | 1013.8 |
| 20260507230354 | 77 | 80 | 2.0 | 4.0 | 0.00 | 0.00 | 0.00 | 70 | 1013.8 |
| 20260507225836 | 77 | 352 | 1.0 | 3.0 | 0.00 | 0.00 | 0.00 | 70 | 1013.8 |
| 20260507225341 | 77 | 89 | 1.0 | 6.0 | 0.00 | 0.00 | 0.00 | 71 | 1013.8 |
| 20260507224824 | 77 | 9 | 1.0 | 6.0 | 0.00 | 0.00 | 0.00 | 70 | 1013.4 |
| 20260507224329 | 77 | 6 | 1.0 | 4.0 | 0.00 | 0.00 | 0.00 | 70 | 1013.4 |
| 20260507223832 | 77 | 11 | 1.0 | 4.0 | 0.00 | 0.00 | 0.00 | 71 | 1013.4 |
| 20260507223340 | 77 | 307 | 2.0 | 5.0 | 0.00 | 0.00 | 0.00 | 70 | 1013.5 |
| 20260507222824 | 77 | 80 | 1.0 | 5.0 | 0.00 | 0.00 | 0.00 | 70 | 1013.5 |
| 20260507222329 | 78 | 319 | 1.0 | 5.0 | 0.00 | 0.00 | 0.00 | 70 | 1013.5 |
| 20260507221833 | 78 | 79 | 1.0 | 5.0 | 0.00 | 0.00 | 0.00 | 70 | 1013.8 |
| 20260507221337 | 78 | 355 | 1.0 | 3.0 | 0.00 | 0.00 | 0.00 | 70 | 1013.8 |
| 20260507220826 | 78 | 9 | 2.0 | 4.0 | 0.00 | 0.00 | 0.00 | 70 | 1013.8 |
| 20260507220330 | 78 | 76 | 2.0 | 6.0 | 0.00 | 0.00 | 0.00 | 71 | 1013.8 |
| 20260507215838 | 78 | 72 | 2.0 | 6.0 | 0.00 | 0.00 | 0.00 | 70 | 1013.8 |
| 20260507215325 | 78 | 53 | 1.0 | 5.0 | 0.00 | 0.00 | 0.00 | 70 | 1013.8 |
| 20260507214831 | 78 | 12 | 1.0 | 5.0 | 0.00 | 0.00 | 0.00 | 69 | 1014.0 |
| 20260507214333 | 79 | 323 | 3.0 | 5.0 | 0.00 | 0.00 | 0.00 | 70 | 1014.0 |
| 20260507213823 | 79 | 11 | 3.0 | 5.0 | 0.00 | 0.00 | 0.00 | 70 | 1014.0 |
| 20260507213327 | 78 | 96 | 2.0 | 5.0 | 0.00 | 0.00 | 0.00 | 71 | 1014.0 |
| 20260507212831 | 78 | 342 | 3.0 | 6.0 | 0.00 | 0.00 | 0.00 | 71 | 1014.0 |
| 20260507212335 | 78 | 336 | 3.0 | 6.0 | 0.00 | 0.00 | 0.00 | 69 | 1014.0 |
| 20260507211858 | 79 | 329 | 2.0 | 6.0 | 0.00 | 0.00 | 0.00 | 68 | 1014.2 |
| 20260507211340 | 79 | 94 | 3.0 | 6.0 | 0.00 | 0.00 | 0.00 | 69 | 1014.2 |
| 20260507210823 | 79 | 8 | 4.0 | 6.0 | 0.00 | 0.00 | 0.00 | 69 | 1014.2 |
| 20260507210326 | 78 | 86 | 2.0 | 6.0 | 0.00 | 0.00 | 0.00 | 69 | 1014.3 |
| 20260507205830 | 79 | 59 | 1.0 | 6.0 | 0.00 | 0.00 | 0.00 | 71 | 1014.3 |
| 20260507205333 | 78 | 29 | 2.0 | 4.0 | 0.00 | 0.00 | 0.00 | 71 | 1014.3 |
| 20260507204838 | 78 | 59 | 1.0 | 9.0 | 0.00 | 0.00 | 0.00 | 71 | 1014.3 |
| 20260507204325 | 78 | 283 | 3.0 | 9.0 | 0.00 | 0.00 | 0.00 | 70 | 1014.3 |
| 20260507203830 | 78 | 97 | 3.0 | 7.0 | 0.00 | 0.00 | 0.00 | 70 | 1014.3 |
| 20260507203337 | 78 | 72 | 2.0 | 9.0 | 0.00 | 0.00 | 0.00 | 70 | 1014.5 |
| 20260507202900 | 78 | 295 | 2.0 | 9.0 | 0.00 | 0.00 | 0.00 | 71 | 1014.5 |
| 20260507202322 | 78 | 16 | 3.0 | 7.0 | 0.00 | 0.00 | 0.00 | 71 | 1014.5 |
| 20260507201827 | 77 | 79 | 2.0 | 5.0 | 0.00 | 0.00 | 0.00 | 71 | 1014.8 |
| 20260507201351 | 77 | 334 | 1.0 | 6.0 | 0.00 | 0.00 | 0.00 | 73 | 1014.8 |
| 20260507200834 | 76 | 70 | 3.0 | 6.0 | 0.00 | 0.00 | 0.00 | 72 | 1014.8 |
| 20260507200337 | 76 | 278 | 1.0 | 6.0 | 0.00 | 0.00 | 0.00 | 73 | 1014.6 |
| 20260507195821 | 76 | 70 | 2.0 | 7.0 | 0.00 | 0.00 | 0.00 | 73 | 1014.6 |
| 20260507195325 | 76 | 76 | 4.0 | 7.0 | 0.00 | 0.00 | 0.00 | 73 | 1014.6 |
| 20260507194832 | 76 | 53 | 1.0 | 6.0 | 0.00 | 0.00 | 0.00 | 73 | 1014.8 |
| 20260507194335 | 76 | 324 | 4.0 | 6.0 | 0.00 | 0.00 | 0.00 | 73 | 1014.8 |
| 20260507193823 | 75 | 58 | 2.0 | 5.0 | 0.00 | 0.00 | 0.00 | 75 | 1014.8 |
| 20260507193348 | 74 | 89 | 1.0 | 6.0 | 0.00 | 0.00 | 0.00 | 75 | 1015.4 |
| 20260507192830 | 74 | 31 | 2.0 | 6.0 | 0.00 | 0.00 | 0.00 | 75 | 1015.4 |
| 20260507192333 | 74 | 329 | 3.0 | 6.0 | 0.00 | 0.00 | 0.00 | 74 | 1015.4 |
| 20260507191836 | 74 | 10 | 3.0 | 6.0 | 0.00 | 0.00 | 0.00 | 74 | 1015.8 |
| 20260507191323 | 73 | 20 | 2.0 | 6.0 | 0.00 | 0.00 | 0.00 | 76 | 1015.8 |
| 20260507190831 | 73 | 1 | 1.0 | 6.0 | 0.00 | 0.00 | 0.00 | 77 | 1015.8 |
| 20260507190334 | 72 | 68 | 3.0 | 9.0 | 0.00 | 0.00 | 0.00 | 76 | 1015.9 |
| 20260507185838 | 72 | 323 | 4.0 | 9.0 | 0.00 | 0.00 | 0.00 | 76 | 1015.9 |
| 20260507185322 | 72 | 9 | 2.0 | 5.0 | 0.00 | 0.00 | 0.00 | 76 | 1015.9 |
| 20260507184829 | 73 | 21 | 3.0 | 6.0 | 0.00 | 0.00 | 0.00 | 76 | 1015.9 |
| 20260507184333 | 72 | 33 | 2.0 | 6.0 | 0.00 | 0.00 | 0.00 | 77 | 1015.9 |